Location: Jackson Park
(37.2862°N, 79.9123°W)
Time: 21:23:49
(UTC+00:00)

Transit 4A - Pass Details

Date: 10 May 2026
Orbit: 860 x 980 km, 66.8° (Epoch: 9 June)

Event Time Altitude Azimuth Distance (km) Brightness Sun altitude
Rises 13:06:40 0° 177° (S) 3,501 11.0 32.4°
Reaches altitude 10° 13:09:23 10° 167° (SSE) 2,584 10.5 33.0°
Maximum altitude 13:14:34 31° 107° (ESE) 1,571 11.3 34.0°
Drops below altitude 10° 13:19:54 10° 48° (NE) 2,670 11.0 35.0°
Sets 13:22:45 0° 39° (NE) 3,637 11.4 35.6°
